EW8682 Weather Reports


time (UTC)temp
C
wind
direction
speed
KPH
gust
KPH
rain 1hr
cm
rain 24hr
cm
rain mn
cm
humidity
%
barometer
mb
20260507001541 23 178 3.2 12.9 0.00 0.00 0.00 46 1007.4
20260507000043 23 169 4.8 8.0 0.00 0.00 0.00 45 1007.3
20260506234541 23 182 3.2 9.7 0.00 0.00 0.00 46 1007.4
20260506233038 23 193 4.8 9.7 0.00 0.00 0.00 45 1007.4
20260506231536 24 170 4.8 12.9 0.00 0.00 0.00 44 1007.4
20260506230036 25 180 1.6 12.9 0.00 0.00 0.00 43 1007.6
20260506224536 24 175 3.2 12.9 0.00 0.00 0.00 44 1007.7
20260506223031 24 172 4.8 12.9 0.00 0.00 0.00 44 1007.9
20260506221531 24 242 1.6 14.5 0.00 0.00 0.00 44 1008.1
20260506220030 24 217 4.8 12.9 0.00 0.00 0.00 43 1008.3
20260506214523 23 190 0.0 11.3 0.00 0.00 0.00 44 1008.5
20260506213020 23 182 4.8 11.3 0.00 0.00 0.00 44 1008.7
20260506211518 23 173 3.2 12.9 0.00 0.00 0.00 43 1008.8
20260506210016 23 179 3.2 9.7 0.00 0.00 0.00 43 1009.0
20260506204513 23 202 4.8 11.3 0.00 0.00 0.00 43 1009.1
20260506203010 23 194 4.8 9.7 0.00 0.00 0.00 44 1009.2
20260506201509 23 197 4.8 9.7 0.00 0.00 0.00 45 1009.4
20260506200004 22 276 4.8 14.5 0.00 0.00 0.00 45 1009.7
20260506194501 21 197 3.2 8.0 0.00 0.00 0.00 47 1009.8
20260506193058 21 234 1.6 11.3 0.00 0.00 0.00 48 1010.0
20260506191558 21 222 4.8 14.5 0.00 0.00 0.00 49 1010.2
20260506190051 20 187 0.0 8.0 0.00 0.00 0.00 52 1010.2
20260506184552 20 192 1.6 11.3 0.00 0.00 0.00 51 1010.3
20260506183044 19 200 0.0 6.4 0.00 0.00 0.00 53 1010.4
20260506181540 18 194 3.2 9.7 0.00 0.00 0.00 55 1010.6
20260506180036 18 179 1.6 9.7 0.00 0.00 0.00 55 1010.6
20260506174531 17 208 3.2 9.7 0.00 0.00 0.00 57 1010.7
20260506173028 17 215 1.6 8.0 0.00 0.00 0.00 58 1010.8
20260506171527 16 190 1.6 6.4 0.00 0.00 0.00 60 1010.7
20260506170022 16 180 1.6 9.7 0.00 0.00 0.00 62 1010.6
20260506164519 15 181 1.6 6.4 0.00 0.00 0.00 63 1010.6
20260506163030 15 198 1.6 4.8 0.00 0.00 0.00 65 1010.5
20260506161513 14 223 1.6 4.8 0.00 0.00 0.00 67 1010.7
20260506160014 13 189 1.6 8.0 0.00 0.00 0.00 68 1010.6
20260506154506 13 205 0.0 4.8 0.00 0.00 0.00 72 1010.7
20260506153001 12 248 0.0 3.2 0.00 0.00 0.00 74 1010.6
20260506151559 12 329 0.0 3.2 0.00 0.00 0.00 77 1010.7
20260506150055 11 346 0.0 3.2 0.00 0.00 0.00 79 1010.8
20260506144553 11 347 0.0 1.6 0.00 0.00 0.00 83 1010.8
20260506143051 10 346 1.6 3.2 0.00 0.00 0.00 86 1010.7
20260506141554 8 344 1.6 4.8 0.00 0.00 0.00 87 1010.7
20260506140054 8 343 0.0 3.2 0.00 0.00 0.00 86 1010.5
20260506134544 8 343 1.6 3.2 0.00 0.00 0.00 85 1010.3
20260506133042 8 343 1.6 3.2 0.00 0.00 0.00 84 1010.3
20260506131540 8 343 1.6 3.2 0.00 0.00 0.00 82 1010.2
20260506130036 9 343 0.0 3.2 0.00 0.00 0.00 81 1010.0
20260506124534 9 342 0.0 4.8 0.00 0.00 0.00 79 1009.9
20260506123033 10 338 0.0 6.4 0.00 0.00 0.00 78 1009.7
20260506121533 10 323 0.0 4.8 0.00 0.00 0.00 78 1009.7
20260506120034 10 321 1.6 4.8 0.00 0.00 0.00 77 1009.7
20260506114531 10 321 0.0 4.8 0.00 0.00 0.00 76 1009.7
20260506113031 10 320 0.0 3.2 0.00 0.00 0.00 76 1009.6
20260506111530 10 333 1.6 4.8 0.00 0.00 0.00 75 1009.5
20260506110029 10 28 1.6 6.4 0.00 0.00 0.00 75 1009.5
20260506104527 10 319 1.6 4.8 0.00 0.00 0.00 74 1009.6
20260506103027 11 355 0.0 6.4 0.00 0.00 0.00 74 1009.6
20260506101525 11 325 1.6 8.0 0.00 0.00 0.00 73 1009.7
20260506100022 10 360 3.2 8.0 0.00 0.00 0.00 74 1009.6
20260506094517 10 325 1.6 9.7 0.00 0.00 0.00 74 1009.7
20260506093027 10 322 3.2 9.7 0.00 0.00 0.00 74 1009.9
20260506091515 10 355 1.6 9.7 0.00 0.00 0.00 76 1009.8
20260506090012 10 55 0.0 4.8 0.00 0.00 0.00 77 1009.8
20260506084515 9 49 1.6 4.8 0.00 0.00 0.00 79 1010.0
20260506083010 10 49 0.0 6.4 0.00 0.00 0.00 77 1010.1
20260506081509 10 49 1.6 6.4 0.00 0.00 0.00 77 1010.1
20260506073007 10 40 0.0 1.6 0.00 0.00 0.00 76 1010.2
20260506071501 10 42 1.6 4.8 0.00 0.00 0.00 76 1010.0
20260506061603 11 49 0.0 6.4 0.00 0.00 0.00 75 1009.3
20260506044547 10 169 1.6 3.2 0.00 0.03 0.00 81 1008.7
20260506043051 10 169 1.6 4.8 0.00 0.03 0.00 81 1008.6
20260506041559 10 170 1.6 3.2 0.00 0.03 0.00 80 1008.3
20260506040047 11 170 1.6 6.4 0.00 0.03 0.00 78 1008.1
20260506034541 11 171 1.6 4.8 0.00 0.03 0.00 77 1008.0
20260506033042 12 172 0.0 4.8 0.00 0.03 0.00 74 1007.8
20260506031537 12 172 1.6 4.8 0.00 0.03 0.00 71 1007.6
20260506030035 14 172 1.6 3.2 0.00 0.03 0.00 67 1007.3
20260506024533 15 172 0.0 0.0 0.00 0.03 0.00 63 1007.0
20260506023034 15 172 0.0 1.6 0.00 0.03 0.00 61 1006.9
20260506021532 15 172 0.0 1.6 0.00 0.03 0.00 63 1006.6
20260506014531 15 171 3.2 9.7 0.00 0.03 0.00 60 1006.5
20260506013031 15 175 1.6 8.0 0.00 0.03 0.00 61 1006.5
20260506011533 16 188 3.2 8.0 0.00 0.03 0.00 59 1006.4
20260506010030 16 167 4.8 9.7 0.00 0.03 0.00 57 1006.3
20260506004527 16 180 4.8 9.7 0.00 0.03 0.00 57 1006.3
20260506003027 16 169 4.8 11.3 0.00 0.03 0.00 55 1006.3